Weather History for Evergreen, AL

Change the Weather History Date:

Tuesday, November 13, 2012

  Actual Average (KPRN) Record (KPRN)
Temperature  
Mean Temperature 48 °F -  
Max Temperature 60 °F 69 °F 85 °F (1955)
Min Temperature 37 °F 42 °F 24 °F (1968)
Degree Days  
Heating Degree Days 16    
Moisture  
Dew Point 34 °F    
Average Humidity 66    
Maximum Humidity 89    
Minimum Humidity 33    
Precipitation  
Precipitation 0.00 in - - ()
Sea Level Pressure  
Sea Level Pressure 30.32 in    
Wind  
Wind Speed 7 mph (NNW)    
Max Wind Speed 14 mph    
Max Gust Speed 21 mph    
Visibility 10 miles    
Events      
Averages and records for this station are not official NWS values.
T = Trace of Precipitation, MM = Missing Value Source: NWS Daily Summary

Daily Weather History Graph

Daily Weather History Graph

Search for Another Location

Airport:

Trip Planner

Search our weather history database for the weather conditions in past years. The results will help you decide how hot, cold, wet, or windy it might be!

Date:

Astronomy

Nov. 13, 2012 Rise Set
Actual Time 6:14 AM CST 4:50 PM CST
Civil Twilight 5:48 AM CST 5:15 PM CST
Nautical Twilight 5:19 AM CST 5:45 PM CST
Astronomical Twilight 4:50 AM CST 6:13 PM CST
Moon 5:51 AM CST (11/13) 4:44 PM CST (11/13)
Length of Visible Light 11h 27m
Length of Day
10h 35m
Waning Crescent, 0% of the Moon is Illuminated
Nov 13
Waning Crescent
Nov 13
New
Nov 20
First Quarter
Nov 28
Full
Dec 6
Last Quarter

Hourly Weather History & Observations

Time (CST) Temp. Windchill Dew Point Humidity Pressure Visibility Wind Dir Wind Speed Gust Speed Precip Events Conditions
12:53 AM 45.0 °F 41.2 °F 39.0 °F 80% 30.33 in 10.0 mi NNW 6.9 mph - N/A   Clear
1:53 AM 43.0 °F 38.2 °F 37.9 °F 82% 30.33 in 10.0 mi NNW 8.1 mph - N/A   Clear
2:53 AM 41.0 °F 36.4 °F 37.0 °F 86% 30.34 in 10.0 mi NNW 6.9 mph - N/A   Clear
3:53 AM 39.9 °F 34.5 °F 36.0 °F 86% 30.34 in 10.0 mi NNW 8.1 mph - N/A   Clear
4:53 AM 39.0 °F 35.7 °F 35.1 °F 86% 30.36 in 10.0 mi North 4.6 mph - N/A   Clear
5:53 AM 37.9 °F 33.5 °F 34.0 °F 86% 30.37 in 10.0 mi NNW 5.8 mph - N/A   Clear
6:53 AM 37.9 °F 32.7 °F 33.1 °F 83% 30.39 in 10.0 mi North 6.9 mph - N/A   Clear
7:53 AM 42.1 °F 36.1 °F 32.0 °F 67% 30.40 in 10.0 mi North 10.4 mph 16.1 mph N/A   Clear
8:53 AM 46.0 °F 39.9 °F 30.9 °F 56% 30.40 in 10.0 mi North 13.8 mph 18.4 mph N/A   Clear
9:53 AM 48.9 °F - 30.0 °F 48% 30.38 in 10.0 mi NNE 12.7 mph - N/A   Clear
10:53 AM 53.1 °F - 30.0 °F 41% 30.36 in 10.0 mi North 9.2 mph 20.7 mph N/A   Clear
11:53 AM 57.0 °F - 32.0 °F 39% 30.32 in 10.0 mi NNW 8.1 mph 17.3 mph N/A   Clear
12:53 PM 57.9 °F - 30.9 °F 36% 30.30 in 10.0 mi North 12.7 mph 18.4 mph N/A   Clear
1:53 PM 60.1 °F - 32.0 °F 35% 30.27 in 10.0 mi North 8.1 mph - N/A   Clear
2:53 PM 60.1 °F - 30.9 °F 33% 30.27 in 10.0 mi North 10.4 mph - N/A   Clear
3:53 PM 57.9 °F - 32.0 °F 37% 30.27 in 10.0 mi North 4.6 mph - N/A   Clear
4:53 PM 51.1 °F - 34.0 °F 52% 30.27 in 10.0 mi NNW 4.6 mph - N/A   Clear
5:53 PM 46.0 °F 44.8 °F 37.0 °F 71% 30.28 in 10.0 mi NNW 3.5 mph - N/A   Clear
6:53 PM 46.0 °F 43.1 °F 35.1 °F 66% 30.29 in 10.0 mi NNW 5.8 mph - N/A   Clear
7:53 PM 44.1 °F 42.5 °F 34.0 °F 68% 30.30 in 10.0 mi NNW 3.5 mph - N/A   Clear
8:53 PM 39.9 °F - 35.1 °F 83% 30.30 in 10.0 mi Calm Calm - N/A   Clear
9:53 PM 39.0 °F - 34.0 °F 82% 30.30 in 10.0 mi Calm Calm - N/A   Clear
10:53 PM 37.0 °F 34.5 °F 34.0 °F 89% 30.29 in 10.0 mi NW 3.5 mph - N/A   Clear
11:53 PM 37.9 °F 35.5 °F 33.1 °F 83% 30.28 in 10.0 mi NW 3.5 mph - N/A   Clear